Wind_Speed
31 32 32 32 33 33 34 35 37 39 39 38 36 36 36 36 36 37 37 38 38 39 39 39 40 40 41 41 42 43 44 45 45 45 46 46 46 46 47 49 49 48 48 46 45 46 48 50 50 50 49 47 45 45 46 46 47 48 49 48 48 48 49 50 51 47 42 42 45 49 52 50 48 51 55 58 57 55 53 52 53 51 47 46 48
31 32 33 34 34 33 33 35 38 40 39 38 36 36 36 36 37 37 37 38 39 39 39 40 41 41 42 43 44 45 46 46 46 47 47 47 47 48 49 50 49 50 50 47 46 47 49 48 47 46 47 46 45 45 45 46 47 47 48 49 47 47 48 50 52 50 45 44 45 47 51 51 48 50 53 55 56 57 55 55 56 54 50 48 49
31 32 33 35 35 34 35 37 40 40 38 37 36 36 36 36 36 37 38 39 39 39 40 41 42 43 44 45 45 46 46 46 47 48 47 48 49 49 50 50 49 51 50 48 48 48 46 45 43 43 44 45 44 44 44 45 46 47 48 49 48 46 47 49 51 51 48 45 45 46 49 51 50 49 52 55 57 58 57 55 54 53 50 50 51
31 33 34 35 34 35 37 39 40 40 38 37 36 36 36 36 37 37 38 40 41 41 42 43 44 45 45 46 46 47 46 45 46 47 48 49 50 50 51 50 50 50 49 49 49 47 45 43 42 42 42 43 44 44 43 43 45 46 46 48 49 48 47 48 50 51 49 47 47 46 47 50 52 50 50 53 57 60 59 56 54 51 48 48 50
33 34 34 35 35 35 38 41 41 39 37 36 36 36 37 37 38 40 41 42 43 43 44 45 45 45 45 46 47 47 47 45 44 45 46 48 50 51 51 50 49 47 46 48 48 45 43 41 41 41 41 41 41 41 41 42 43 45 45 46 48 48 48 48 48 50 50 49 49 48 47 47 50 49 47 48 52 55 55 55 56 53 49 46 47
33 35 35 37 37 36 39 43 41 38 35 35 37 37 38 39 40 41 43 44 44 45 46 46 46 46 45 45 46 46 46 46 46 45 45 48 51 51 50 49 47 43 43 47 46 43 42 41 40 40 39 38 38 39 39 40 41 43 43 43 45 47 48 47 47 48 49 49 51 51 49 46 44 45 45 45 47 48 47 50 54 52 47 44 43
32 36 37 38 38 37 41 43 40 37 36 36 38 38 39 40 41 43 45 46 47 47 47 47 47 47 46 45 45 45 46 47 47 46 46 48 49 48 49 49 47 44 45 46 45 43 42 40 39 39 37 37 37 38 39 40 40 42 42 42 43 44 46 46 46 47 47 49 51 53 53 49 43 40 44 45 44 44 45 48 52 49 43 41 41
33 36 37 39 39 39 42 42 38 36 37 38 39 40 40 41 42 45 46 47 48 48 48 48 48 47 47 46 46 45 46 47 47 47 47 47 46 45 46 46 45 44 45 45 42 41 40 39 38 37 36 37 38 39 40 39 40 41 40 40 41 41 43 44 45 46 47 48 51 53 55 53 46 40 42 46 45 43 44 47 51 48 44 42 42
35 36 38 39 39 41 43 42 37 37 39 40 41 41 41 42 44 46 47 48 49 49 49 49 48 48 47 47 46 46 46 47 48 49 48 45 45 46 44 40 40 42 42 40 39 38 37 36 36 36 36 37 39 40 41 41 41 41 41 39 38 38 40 42 44 46 47 48 50 53 55 55 50 42 41 45 46 43 44 46 49 48 44 44 45
36 38 39 40 40 43 45 42 38 39 41 41 42 42 42 44 46 48 49 50 50 50 50 49 48 47 47 46 46 47 47 47 48 49 48 45 46 47 44 40 41 42 40 38 36 34 34 34 34 35 37 39 41 42 42 43 43 42 42 40 38 37 38 40 43 45 47 48 49 52 55 55 51 44 40 42 45 44 45 46 48 48 44 44 46
37 39 39 40 42 45 44 41 40 42 42 43 44 44 44 46 48 50 51 50 50 51 51 48 46 45 45 46 46 47 48 49 49 48 47 45 44 45 44 43 42 42 40 37 34 32 32 33 32 33 36 38 42 44 43 42 42 42 42 41 40 38 37 38 41 43 45 47 48 51 54 54 52 47 41 40 42 42 43 45 48 50 47 43 43
38 38 39 42 46 46 43 42 43 44 44 45 45 45 47 49 50 51 51 51 51 52 51 48 46 44 44 46 47 48 50 49 48 47 46 44 43 44 44 42 41 41 39 37 34 32 32 31 30 32 34 34 39 45 45 43 42 42 41 40 40 39 39 38 39 40 42 45 46 49 51 53 54 50 41 39 41 40 40 44 48 51 51 46 43
38 39 43 46 48 46 43 44 45 45 45 45 46 47 49 51 52 52 52 53 53 53 52 50 48 46 46 48 49 49 50 49 48 47 43 42 43 43 41 39 38 38 36 34 33 32 31 31 31 32 34 34 38 43 45 43 42 42 41 39 39 39 39 38 38 38 38 40 43 45 48 51 56 53 43 37 39 41 42 45 48 51 51 47 45
38 42 46 47 46 44 44 45 47 47 47 47 47 49 51 52 53 54 54 54 53 52 51 50 50 50 49 49 49 49 50 48 46 44 41 42 43 42 40 38 35 33 32 32 32 32 32 32 33 33 35 37 40 42 43 43 44 43 40 38 38 39 39 38 39 39 37 35 37 40 44 48 53 53 45 38 38 41 43 45 47 51 52 48 46
38 42 45 44 44 44 45 46 47 47 48 48 49 51 52 53 54 54 53 53 52 50 50 50 50 50 49 49 49 50 49 46 43 41 42 44 44 42 40 38 34 31 31 31 31 31 31 32 34 36 38 40 41 42 42 43 44 43 40 36 36 38 38 37 38 40 39 35 32 35 39 43 47 49 45 40 38 40 43 44 44 46 50 50 50
39 41 43 43 44 45 46 47 47 48 49 49 50 52 54 54 54 53 52 52 49 47 48 50 49 49 49 49 49 48 46 43 42 42 44 46 46 44 41 37 33 31 30 30 31 32 32 31 33 35 37 38 39 40 40 41 42 42 38 35 36 37 37 37 36 39 40 36 31 32 36 39 43 44 42 40 38 39 42 44 42 41 46 50 50
40 40 41 42 44 45 47 48 48 48 49 51 52 54 54 55 54 52 51 49 47 47 48 49 47 47 48 49 48 46 42 41 42 43 44 45 45 43 41 36 32 30 29 30 31 32 32 31 31 33 35 35 36 37 37 38 40 39 35 33 35 36 36 35 36 39 39 36 32 31 34 37 40 41 39 39 38 39 40 42 41 41 44 47 48
37 38 40 42 44 46 48 48 49 49 51 52 53 54 55 55 54 53 52 48 47 47 47 46 45 44 45 48 49 47 44 41 40 40 41 43 41 40 39 34 31 30 29 29 30 31 30 31 30 31 32 32 33 34 35 37 38 36 32 32 34 35 34 33 35 38 38 35 32 31 33 36 38 39 39 38 38 38 37 37 39 42 44 45 45
36 38 41 43 44 46 47 48 49 50 50 51 52 53 54 55 54 54 53 50 48 47 46 45 45 43 42 44 47 48 45 41 38 37 38 40 40 38 35 31 29 29 27 27 29 30 30 30 30 30 30 30 32 33 34 37 37 33 29 30 33 34 32 31 33 34 33 33 31 30 32 35 36 36 36 37 38 37 36 35 35 39 43 44 44
37 39 41 42 43 44 47 50 50 48 48 50 52 53 53 53 54 54 54 52 48 47 47 47 45 43 41 42 44 46 42 39 40 38 35 36 38 36 32 29 27 27 26 27 29 30 30 29 29 30 30 30 32 33 34 36 36 30 27 29 32 33 30 29 30 29 28 29 29 28 30 32 33 33 34 35 37 37 38 37 34 34 38 42 42
39 41 41 41 43 44 47 50 50 48 49 50 51 51 52 53 54 53 52 50 47 46 46 45 44 43 42 40 40 41 39 39 40 36 31 34 37 34 30 28 27 26 26 27 28 28 28 28 28 29 30 30 30 31 33 35 33 29 26 28 31 32 27 25 28 26 24 25 28 28 29 29 30 31 32 33 34 35 38 39 36 32 34 38 40
41 42 41 41 44 45 46 49 50 50 51 51 51 52 52 53 52 51 50 48 45 43 43 43 42 42 41 39 37 37 37 36 35 33 34 37 36 32 28 27 26 25 25 25 25 26 26 26 27 28 28 28 28 29 31 33 32 30 26 26 29 31 26 22 25 25 22 24 27 28 28 28 29 30 30 32 33 34 36 38 37 34 33 35 38
40 39 41 43 45 46 46 47 49 51 52 53 54 54 53 51 50 49 49 47 44 43 42 41 41 41 40 39 37 36 35 34 35 39 41 39 34 31 28 26 27 27 25 24 25 25 25 25 26 27 27 26 26 28 30 31 31 31 28 25 25 28 24 20 22 23 20 22 27 28 28 29 30 29 29 31 32 33 34 36 37 37 36 35 38
37 38 43 46 46 46 46 48 50 53 54 54 55 54 52 51 50 49 48 46 44 43 42 41 41 41 40 39 38 38 37 37 39 43 42 36 32 31 28 26 27 27 25 25 25 24 24 24 24 25 25 25 26 28 29 30 30 30 30 26 23 23 23 20 22 22 19 21 26 28 29 30 31 30 29 29 31 32 33 35 37 39 38 38 39
39 44 45 46 47 47 48 50 52 54 54 54 54 53 52 51 50 49 47 45 44 43 42 41 42 41 40 39 39 39 39 39 41 42 40 34 31 29 27 26 27 26 25 25 25 24 23 23 23 23 24 24 26 27 28 29 29 29 29 27 21 19 20 20 21 20 18 19 23 26 30 32 32 30 28 28 29 31 32 34 36 38 39 39 40
44 47 46 47 50 51 52 54 55 55 55 54 53 52 52 51 50 48 46 44 43 43 42 42 42 42 41 40 39 39 41 41 41 40 37 33 30 28 26 25 25 26 26 25 24 23 22 22 22 22 22 23 25 25 25 27 29 28 28 28 22 17 16 17 20 20 16 17 21 24 28 31 32 29 27 28 30 30 30 31 33 35 37 39 41
47 49 49 51 54 54 56 58 58 57 56 55 54 53 52 51 49 47 44 44 44 44 43 43 42 41 41 39 38 39 41 41 39 36 33 31 30 27 25 24 25 26 25 24 24 23 21 21 21 21 21 22 22 22 22 24 26 27 27 28 24 17 12 12 16 19 17 16 19 23 26 28 29 28 27 28 29 30 30 31 32 34 35 36 38
50 52 53 54 55 56 59 60 59 59 57 55 55 54 52 50 48 46 44 43 43 43 43 43 43 41 40 39 38 39 40 40 37 34 32 30 28 25 23 23 23 24 23 23 23 22 20 20 21 20 20 20 19 19 20 21 23 25 26 27 26 20 14 10 9 13 15 14 16 23 26 26 27 28 28 28 28 29 29 30 30 32 34 35 37
50 51 52 55 58 59 60 60 60 59 57 56 55 54 51 48 46 45 45 43 42 42 42 42 42 41 39 38 39 39 39 37 34 31 29 28 26 24 23 22 22 23 22 21 21 21 19 19 20 21 20 19 17 16 17 19 21 23 25 26 27 24 18 11 8 8 12 11 11 19 27 28 27 27 27 28 28 29 30 30 31 33 35 36 37
52 54 57 59 61 61 60 60 59 58 57 57 55 53 50 47 45 44 44 44 42 42 41 41 41 39 38 37 38 39 36 32 30 27 25 24 24 24 23 22 23 23 22 20 20 20 20 20 20 21 20 18 17 15 15 17 19 21 24 25 26 27 23 17 12 7 9 10 8 12 23 30 31 29 28 29 30 30 31 32 34 35 35 36 36
56 58 60 61 61 61 60 58 58 57 57 56 55 52 49 46 44 43 43 43 43 42 41 40 39 38 37 36 37 36 33 29 27 25 23 23 24 24 24 23 24 23 22 21 20 20 20 21 20 20 19 18 15 13 13 15 17 19 22 24 25 27 26 24 19 12 7 8 8 8 14 25 32 33 33 33 32 31 31 33 34 35 35 36 37
58 59 60 60 60 60 58 58 57 57 56 55 54 52 48 45 43 43 42 42 42 42 41 40 39 38 36 35 35 34 31 27 26 25 24 24 24 24 24 23 23 23 21 21 21 21 21 21 20 19 18 17 14 12 11 12 15 17 19 22 24 26 27 27 26 21 14 9 8 7 7 13 22 29 33 34 35 34 35 35 36 36 36 36 36
58 58 58 58 58 58 57 56 56 55 55 53 51 49 47 44 42 42 42 42 41 41 40 39 38 37 35 34 33 32 30 28 27 26 26 25 25 24 23 23 23 22 21 20 20 21 22 21 19 18 17 15 13 12 11 11 13 15 17 19 22 24 25 27 27 26 23 17 11 9 8 6 11 18 25 31 34 35 36 37 37 38 38 37 37
56 56 56 57 57 56 55 55 54 53 51 49 46 44 43 41 40 40 41 41 41 40 40 38 37 36 34 33 32 31 29 28 28 28 28 27 25 24 23 22 23 21 19 19 20 20 21 21 19 17 16 15 13 11 11 11 12 14 16 17 19 21 23 25 26 27 27 25 20 13 8 7 8 12 18 25 30 33 35 37 38 38 38 37 38
55 55 55 55 54 54 53 52 52 50 48 46 45 44 43 42 41 40 40 40 40 40 39 38 36 34 33 32 31 30 28 27 27 28 30 29 28 26 24 23 23 21 19 19 19 19 20 20 19 17 16 15 14 12 12 12 12 13 15 16 17 19 21 22 24 25 26 26 25 20 13 7 7 10 15 21 26 30 32 35 36 38 39 36 34
53 53 53 53 52 52 51 50 49 47 46 44 43 43 44 43 42 41 40 40 40 40 39 37 35 33 32 31 30 29 28 26 25 26 28 30 31 29 27 25 24 22 20 19 19 19 19 19 19 18 17 16 15 14 14 13 13 13 15 16 17 18 19 20 22 23 24 25 26 25 21 16 9 5 10 16 21 25 29 31 33 37 41 42 39
51 51 51 51 51 50 50 49 48 46 44 41 41 41 42 42 41 41 40 40 40 40 38 35 33 31 30 30 29 28 26 25 24 23 25 27 30 31 30 28 26 24 22 21 20 19 19 19 19 18 17 17 17 16 16 15 15 14 14 16 16 17 18 19 20 21 22 23 23 24 24 23 19 12 6 8 13 19 25 30 32 34 38 44 46
49 49 48 48 49 48 48 47 45 42 39 39 39 40 40 40 40 40 39 39 39 39 37 34 31 29 27 28 28 26 25 24 23 23 22 24 26 29 29 29 27 26 24 22 21 20 19 19 19 19 18 17 17 18 17 17 17 16 15 15 16 17 17 17 18 19 20 21 21 22 23 24 23 21 16 10 6 9 15 23 29 32 34 38 42
46 45 45 46 47 46 45 43 41 39 37 37 37 38 38 38 39 39 38 38 38 37 35 32 30 27 26 26 26 26 26 25 24 24 24 23 24 25 26 26 26 25 24 23 22 21 21 20 20 20 19 18 18 18 18 18 18 17 17 16 16 16 17 17 17 18 19 19 20 20 21 22 22 23 22 20 15 10 6 10 17 24 28 32 36
43 43 44 44 44 43 42 40 38 37 37 36 36 37 37 37 38 37 37 37 37 35 33 31 29 27 26 26 27 27 28 27 26 26 25 25 24 25 24 24 24 24 24 23 23 22 21 21 20 20 20 20 19 19 20 19 19 19 18 18 17 17 17 17 17 17 17 18 18 18 19 20 20 21 21 21 21 19 15 11 7 9 15 22 28
43 42 43 43 43 41 39 38 38 39 38 37 37 36 37 37 37 37 36 36 35 34 33 32 31 29 27 27 27 28 29 28 28 27 26 25 25 25 24 24 24 23 23 23 22 22 21 21 21 21 21 21 21 21 21 21 21 21 20 20 19 19 18 17 17 17 16 17 17 17 17 18 18 19 20 20 20 20 20 18 16 12 8 8 13
44 44 44 44 42 39 38 38 39 39 39 38 37 37 37 36 36 36 35 34 34 33 32 31 31 31 29 28 28 28 29 29 28 27 26 26 25 25 25 24 24 24 23 23 22 22 21 21 21 21 21 21 22 22 22 22 22 22 22 22 21 21 20 19 18 18 17 16 17 17 16 16 17 18 18 18 18 19 19 19 19 18 16 12 9
46 46 45 43 41 39 38 38 38 39 38 38 38 37 36 35 34 34 34 33 32 31 30 28 29 30 30 27 26 27 27 26 26 26 25 25 25 25 25 25 25 25 24 24 24 23 23 23 22 22 22 22 22 23 23 23 23 23 24 24 23 23 22 21 20 19 18 17 17 17 17 16 16 16 17 17 17 17 17 17 17 17 17 16 15
47 46 44 42 41 39 38 38 38 38 38 38 37 36 35 34 34 33 33 32 32 31 29 27 27 28 29 28 26 25 25 24 24 24 24 24 23 23 24 24 24 24 24 25 25 25 25 24 24 24 23 23 23 24 24 24 24 25 25 25 24 24 23 23 21 20 19 19 18 18 17 18 17 16 16 16 17 17 17 16 16 16 16 16 15
45 44 42 41 40 39 38 38 38 38 37 37 36 36 34 34 33 33 32 32 32 33 31 29 28 28 28 28 27 26 25 24 24 24 23 23 23 23 22 23 23 23 23 24 24 24 25 25 24 24 24 24 24 24 25 25 25 26 26 26 26 25 25 24 24 23 22 21 20 19 19 19 19 18 17 16 16 17 17 16 16 16 16 16 15
42 41 40 39 38 38 37 37 38 37 37 36 36 35 34 34 33 33 32 33 33 33 32 31 30 29 29 27 26 26 26 25 25 25 24 24 24 24 23 23 23 23 23 24 24 24 24 25 25 25 25 25 25 25 25 26 26 26 27 27 27 27 27 26 26 25 25 24 23 22 21 21 20 20 19 18 17 17 17 17 17 17 16 16 16
42 41 39 38 37 37 37 37 37 37 37 36 36 35 34 33 33 33 33 33 33 34 33 31 30 30 29 28 26 26 26 26 26 26 26 25 25 25 25 25 25 25 25 25 25 26 26 26 27 27 27 27 27 27 27 27 28 28 28 28 28 28 28 27 27 27 27 27 26 25 24 23 22 22 22 21 20 19 18 18 18 18 18 18 17
41 39 38 37 37 37 36 36 37 37 37 37 36 34 33 33 34 33 32 32 31 32 32 32 30 29 28 28 27 27 27 27 27 27 27 27 27 27 28 28 28 27 27 27 28 28 28 29 29 29 29 29 29 29 29 29 29 29 29 29 29 28 28 28 27 27 27 27 27 27 26 25 24 23 23 23 22 21 20 19 19 19 19 19 19
37 37 37 37 37 37 37 37 37 37 37 36 36 34 34 34 34 33 33 32 31 30 31 31 30 29 28 28 28 28 28 28 28 28 28 29 29 29 29 29 29 29 30 30 30 30 30 30 30 30 31 31 31 30 30 30 29 29 28 28 27 27 27 27 26 26 26 27 27 27 27 26 25 24 23 23 23 22 22 21 20 20 20 20 21
36 37 37 37 37 37 37 36 36 35 35 35 35 35 34 34 34 34 33 32 31 30 30 30 30 30 29 29 29 29 30 30 30 30 30 30 30 30 30 30 30 30 30 31 31 32 32 31 31 31 31 30 30 30 29 28 27 26 25 25 24 24 24 24 25 25 25 25 26 26 26 26 25 24 24 23 23 23 23 22 22 21 21 21 22
36 35 35 36 36 36 35 34 34 35 34 34 34 34 33 33 32 31 30 30 30 29 29 29 29 29 29 30 30 30 31 31 31 31 31 30 30 29 29 29 29 29 29 30 30 30 31 31 30 29 29 28 27 27 26 26 25 24 24 23 23 23 23 23 23 24 24 24 24 25 25 25 25 25 25 24 24 24 24 24 23 23 23 23 23
Wind_Direction
302 303 302 302 302 304 304 304 309 310 308 307 307 307 307 307 308 308 310 313 314 314 315 314 313 313 312 311 310 310 310 311 312 312 312 313 313 312 312 311 308 305 304 302 298 294 294 297 295 293 293 291 289 286 283 282 279 277 274 270 269 269 268 267 264 258 254 252 246 243 244 241 234 232 234 233 232 233 236 235 236 238 236 234 234
302 302 300 303 305 308 306 307 311 311 308 308 308 308 308 307 308 310 312 315 316 316 316 315 315 314 313 312 311 310 311 311 312 312 312 313 312 312 312 310 307 305 304 303 300 297 298 298 295 292 291 290 289 286 283 281 279 277 274 270 267 266 266 265 264 260 255 252 249 244 244 245 237 231 232 233 233 234 236 235 235 237 238 236 235
303 302 303 307 309 310 309 309 310 309 308 309 309 309 308 307 308 310 313 316 317 317 317 317 316 315 313 312 311 310 311 312 312 312 313 313 312 312 312 310 307 306 305 303 302 301 301 300 296 293 290 290 289 286 284 282 279 276 273 271 269 266 265 264 263 262 256 250 248 245 243 244 242 236 232 232 233 234 235 236 235 236 239 238 237
305 306 308 308 307 309 310 309 310 309 308 309 309 309 309 309 309 310 313 317 318 319 319 318 316 315 313 312 312 311 312 313 314 314 314 313 312 313 312 309 307 306 304 302 303 303 303 301 297 293 290 289 289 288 286 283 280 276 272 271 270 267 265 264 262 261 257 250 246 243 242 243 243 241 235 232 234 235 237 237 235 235 238 237 235
307 306 308 306 305 308 308 308 309 308 309 310 310 310 310 311 312 314 318 319 320 319 319 317 316 315 314 313 313 313 313 314 315 314 314 313 312 313 311 309 308 306 303 303 306 306 305 301 297 293 291 290 290 289 289 286 283 280 275 271 270 269 267 265 262 260 256 251 245 241 240 241 243 244 240 234 234 235 236 237 234 233 235 234 234
307 305 304 302 304 306 306 307 308 308 311 312 312 312 312 313 315 318 320 320 319 319 318 317 316 316 315 315 315 314 314 315 315 315 313 311 311 312 310 308 307 305 304 307 309 307 304 300 296 294 293 292 292 291 291 291 289 286 281 275 270 268 267 265 262 259 255 251 245 241 240 240 242 247 246 239 234 231 232 234 231 229 231 231 233
301 299 298 299 303 305 305 306 308 311 314 314 312 312 312 313 316 319 320 320 319 318 317 317 317 316 317 317 316 315 314 315 316 315 313 311 313 313 310 308 309 307 305 308 308 305 303 300 297 296 295 295 295 294 294 295 294 292 287 281 274 269 266 264 261 258 254 251 246 241 240 240 241 249 251 244 235 230 230 230 226 226 228 226 230
293 294 296 300 303 303 303 306 309 312 315 314 313 312 312 314 318 319 319 318 317 316 316 317 317 317 318 317 316 315 314 315 315 315 314 312 314 314 310 308 309 308 305 306 305 303 300 299 298 298 298 297 297 297 297 298 299 298 294 288 280 272 267 263 260 258 254 251 247 241 239 239 239 247 252 246 239 233 230 228 224 226 230 228 229
292 294 297 299 300 299 301 306 310 312 314 313 311 311 312 316 318 317 316 315 315 315 316 317 317 318 318 316 315 314 314 315 315 315 315 314 313 312 308 305 306 307 306 305 303 300 299 299 299 299 299 299 299 300 302 303 303 302 298 292 285 277 271 266 262 258 254 251 247 241 239 238 237 244 251 246 241 236 232 228 225 226 230 232 232
294 297 298 298 297 296 300 306 311 312 312 311 309 310 313 316 316 314 314 314 314 315 316 316 317 318 316 314 314 314 314 315 315 315 316 316 313 311 306 302 303 304 304 304 301 299 299 299 299 301 302 302 302 303 303 304 304 303 299 294 288 281 275 270 265 259 254 251 246 240 238 236 235 240 247 245 242 239 234 230 225 223 227 231 232
294 298 298 294 293 295 301 308 311 311 311 309 309 311 313 314 313 312 313 314 314 315 315 315 316 316 314 313 313 313 314 314 315 315 316 316 313 309 305 302 302 302 300 300 298 295 296 297 299 303 303 304 305 305 305 306 305 303 300 295 290 285 279 272 266 260 254 249 244 239 235 232 232 237 243 243 241 239 236 233 226 222 225 229 230
293 296 294 289 291 297 304 309 310 309 309 309 309 311 312 311 311 312 313 313 314 315 314 314 315 315 312 311 311 312 313 313 313 314 316 314 311 308 305 303 302 300 297 296 295 293 292 294 298 300 299 301 302 302 305 308 306 304 301 295 290 288 283 274 264 259 255 249 243 237 232 229 229 234 240 241 237 234 231 231 227 222 223 227 230
295 295 290 289 293 300 307 309 308 308 308 308 309 309 309 309 310 312 312 313 315 315 313 313 315 314 311 310 310 311 312 311 312 314 313 310 308 307 304 300 299 298 295 293 294 293 291 293 298 299 298 300 299 299 304 308 306 305 304 297 289 287 285 276 264 258 255 249 243 236 229 227 227 232 240 239 233 230 226 225 225 221 220 227 233
294 292 291 291 296 303 306 307 306 307 307 307 307 307 307 309 310 311 312 314 315 314 312 313 314 312 309 308 309 311 312 311 313 314 312 308 306 305 302 298 297 296 293 292 293 293 294 297 299 299 300 301 301 301 305 308 307 307 306 298 288 284 284 278 265 258 255 251 244 235 228 226 227 231 240 240 232 229 225 223 223 219 216 223 232
293 291 292 294 299 303 304 304 305 305 305 305 305 305 307 308 309 310 312 315 316 314 313 313 312 308 307 307 308 310 312 312 313 314 313 312 308 305 303 299 297 296 292 291 296 297 298 301 302 302 303 303 304 307 310 310 308 308 306 298 287 282 283 280 267 257 254 251 244 233 226 226 226 229 239 242 234 228 225 222 220 217 216 221 228
292 292 294 296 299 301 301 302 303 303 303 303 304 305 305 306 308 311 314 315 314 312 311 311 309 306 306 308 309 312 314 315 315 315 316 314 310 306 304 299 296 297 292 292 297 300 300 304 306 306 307 309 311 314 316 313 310 309 307 298 288 284 284 280 268 256 253 251 244 232 224 225 226 228 237 241 237 233 227 220 215 214 218 223 226
291 292 294 295 297 298 300 301 301 301 301 302 302 303 304 305 309 312 313 312 309 308 309 308 307 307 308 309 310 312 315 315 316 317 317 315 312 307 302 298 296 296 292 292 298 301 303 307 310 311 314 318 320 319 318 315 312 311 308 299 292 288 284 277 265 255 251 250 246 233 223 222 225 229 234 238 239 238 232 223 217 216 220 224 226
289 291 293 294 296 297 299 299 299 300 300 301 301 303 304 307 310 312 312 310 307 307 308 307 306 307 308 309 311 313 314 315 315 316 317 317 316 310 303 297 296 296 292 294 299 301 304 309 312 315 320 323 322 319 319 319 317 314 311 304 297 292 286 274 261 253 250 250 248 236 223 220 223 227 231 235 238 239 234 226 225 226 226 226 225
287 291 294 294 295 296 296 297 297 299 301 300 301 304 307 309 310 310 311 310 308 308 308 306 306 307 307 309 312 314 314 314 313 313 316 319 318 314 306 298 297 298 296 297 300 302 305 311 314 317 320 321 321 321 323 324 321 318 315 309 302 298 291 276 260 251 248 248 248 237 222 218 221 224 229 233 236 237 233 229 230 233 232 230 225
287 292 294 293 294 295 295 295 296 298 300 300 302 306 308 308 309 310 311 310 309 308 308 307 308 309 309 309 312 314 315 312 306 306 314 321 320 315 307 299 298 300 300 300 301 302 306 312 315 317 320 322 323 324 327 327 324 321 317 311 305 302 297 282 266 255 246 244 244 233 220 216 217 222 227 233 236 237 236 235 235 235 234 231 227
289 293 292 291 294 295 295 295 295 297 299 301 305 308 308 307 309 310 310 310 309 308 308 308 309 311 311 310 311 315 315 308 299 300 313 323 321 315 307 298 297 303 305 302 299 300 305 311 315 318 321 323 323 325 327 329 328 325 318 312 307 305 299 284 269 260 247 240 236 228 218 214 215 220 226 231 235 237 238 237 237 236 233 229 227
290 290 290 293 295 295 295 294 296 299 302 304 307 308 307 308 309 309 309 309 308 306 306 307 308 309 309 308 308 311 311 303 296 299 312 320 320 315 306 297 297 304 308 305 301 302 306 311 315 319 321 323 324 326 329 331 334 332 323 315 310 306 299 284 271 264 249 236 231 224 216 214 216 219 223 226 229 233 234 233 234 237 235 228 226
289 287 291 296 296 295 295 294 295 300 303 304 306 307 308 309 308 308 308 307 306 305 305 305 306 306 306 305 304 304 302 297 294 296 303 311 316 313 305 297 296 301 305 305 305 306 308 311 315 318 319 321 325 329 331 333 337 337 330 319 311 307 298 282 272 267 250 232 228 223 217 217 219 220 222 224 226 228 229 227 229 233 232 227 225
288 291 295 297 295 296 296 296 298 302 303 304 306 307 308 307 306 306 306 305 305 305 303 303 304 305 304 304 304 304 300 297 295 292 292 299 308 308 302 296 297 300 301 302 304 306 308 312 315 316 317 321 328 333 334 334 338 339 334 324 314 307 298 278 265 264 254 237 230 225 221 220 221 221 221 222 223 225 225 224 225 227 227 225 223
290 295 296 294 294 297 300 301 302 304 305 306 307 307 306 305 304 304 304 304 303 302 301 302 303 303 303 303 304 304 301 300 299 293 288 292 299 302 298 295 296 298 298 299 301 304 307 311 313 315 317 323 331 334 335 336 338 339 337 333 323 312 301 279 260 260 261 249 238 231 225 222 223 223 220 218 220 223 224 223 222 222 223 223 222
290 294 292 293 296 299 302 305 305 305 306 307 306 305 305 304 303 303 303 302 301 299 299 300 300 301 302 303 304 303 302 303 301 296 291 290 291 294 294 293 294 296 297 298 299 301 305 307 310 315 320 324 331 335 336 338 339 338 340 341 336 327 313 287 260 252 257 253 242 236 231 226 225 224 219 216 217 219 219 220 220 220 221 222 222
290 293 293 295 298 299 301 304 305 305 306 306 306 305 304 304 303 302 300 299 298 298 298 298 299 299 300 302 303 301 302 303 301 296 293 290 287 287 290 290 291 294 295 296 297 298 302 304 307 315 322 324 329 335 338 340 339 339 343 345 344 341 332 304 270 254 254 250 237 232 232 231 228 224 219 216 216 217 218 219 220 220 221 222 224
293 294 294 295 296 297 299 301 303 304 304 305 305 304 304 303 301 299 298 297 297 297 297 297 297 298 300 303 302 300 301 304 301 295 291 289 285 285 286 286 288 290 291 293 294 295 298 303 308 317 322 325 329 335 340 341 341 342 345 347 350 352 350 338 305 273 267 263 239 226 227 230 228 225 220 217 218 220 222 223 223 223 224 224 225
293 292 291 293 294 296 297 299 301 302 302 303 303 302 302 301 298 297 296 296 295 295 295 295 296 297 300 302 301 300 303 304 301 294 289 286 283 282 283 284 285 286 288 290 293 296 299 305 312 317 321 326 332 339 342 342 341 345 348 349 353 356 355 349 334 292 274 275 252 225 223 226 226 223 221 220 222 223 224 223 223 223 225 226 226
292 291 291 293 294 296 297 299 299 300 300 300 300 300 299 297 295 294 294 294 294 294 293 294 294 297 300 301 299 301 305 304 299 293 287 282 280 279 281 283 284 286 289 291 293 297 302 307 312 318 321 326 333 339 342 342 342 346 350 352 355 358 360 358 350 320 277 275 269 232 223 223 222 221 220 221 224 226 224 223 224 224 226 227 228
291 291 292 294 295 296 297 298 298 298 298 298 297 296 296 295 294 292 291 292 292 292 292 292 293 296 300 300 298 301 305 303 296 290 284 279 278 279 281 284 286 288 291 294 296 298 303 306 311 316 320 324 330 337 341 343 344 347 352 356 357 360 3 5 2 354 315 281 275 251 229 221 219 221 220 219 222 224 223 224 225 225 226 227 228
290 291 292 293 294 295 296 297 297 297 296 295 294 294 294 293 292 291 290 290 290 290 291 292 293 296 299 297 296 300 303 298 291 286 282 278 278 280 283 284 287 289 292 296 299 300 302 305 308 313 318 322 328 335 341 345 347 350 354 357 359 2 5 7 7 7 359 330 296 284 263 227 219 222 222 219 220 221 220 222 223 223 225 226 226
290 291 292 293 294 295 295 296 295 295 294 294 293 293 294 293 292 291 289 289 289 289 290 291 293 296 297 294 293 297 300 295 286 280 278 277 277 281 285 286 286 288 292 296 300 300 301 302 305 308 313 320 326 332 339 344 348 351 354 357 359 1 4 6 9 11 10 5 347 319 305 271 232 228 224 221 221 220 218 219 221 222 224 227 227
290 292 293 294 294 295 294 294 294 294 294 293 291 292 294 294 293 291 289 289 290 290 290 291 292 294 294 291 291 294 297 294 285 276 273 274 276 279 284 286 285 287 291 295 297 297 298 299 301 304 308 315 321 325 331 338 342 345 350 354 357 359 1 3 6 8 10 10 7 355 329 293 257 240 230 225 224 223 222 222 222 221 223 227 229
291 292 293 294 295 295 294 294 293 293 293 291 289 290 291 292 293 292 290 290 291 291 291 292 293 293 291 288 289 292 295 295 290 279 270 269 271 275 278 281 284 287 290 292 293 294 294 296 299 302 305 309 314 317 319 327 334 337 342 348 353 355 357 359 1 4 6 6 7 5 358 332 273 244 234 228 224 221 221 222 222 222 222 223 223
291 293 294 295 294 294 293 293 292 292 292 291 290 290 290 290 292 292 292 292 292 291 292 292 292 292 290 287 288 292 293 295 296 288 274 266 266 270 273 276 279 283 287 289 289 290 292 294 297 300 301 303 307 310 313 317 324 329 334 341 345 350 353 355 356 358 1 2 2 3 3 0 344 280 240 230 225 222 222 221 220 219 220 221 222
293 294 295 294 294 293 292 291 291 291 290 289 290 290 290 291 292 292 293 293 292 292 292 292 291 291 289 287 288 291 292 292 294 293 284 274 269 269 270 271 273 276 280 284 284 285 288 291 292 295 297 299 302 306 308 311 316 322 327 332 336 341 346 349 350 352 355 358 358 358 358 359 358 352 317 249 232 227 226 225 223 220 219 221 224
293 294 293 293 293 292 291 291 291 290 287 287 288 289 289 290 290 291 292 293 293 293 293 292 292 290 287 286 287 289 290 291 291 292 292 286 280 275 272 269 268 270 274 278 279 280 282 284 286 289 292 295 298 301 304 307 310 314 318 323 328 332 336 341 344 346 348 351 354 354 353 353 355 355 353 340 298 244 228 225 224 223 221 221 224
292 291 292 292 292 292 291 290 290 289 287 287 288 288 289 289 289 290 292 293 294 293 292 292 290 287 284 284 286 287 288 289 290 290 291 290 288 285 279 272 269 268 270 273 275 276 277 278 280 284 287 290 293 295 298 301 303 306 310 314 318 323 327 331 336 338 340 342 346 348 348 348 348 350 351 351 347 333 291 240 225 220 217 216 218
289 289 290 291 291 291 290 287 287 288 288 288 288 288 288 288 289 291 293 293 293 292 291 289 287 284 283 284 285 285 287 287 288 288 287 285 285 286 285 281 276 271 270 271 272 273 273 274 276 279 282 285 287 288 291 294 296 299 303 306 309 313 317 320 325 329 331 333 336 340 342 342 342 342 344 346 348 347 342 332 299 243 222 215 214
287 288 289 290 291 290 287 285 285 286 288 288 287 287 287 288 289 291 292 292 291 290 289 287 285 285 286 286 285 285 286 287 287 286 284 283 282 281 281 281 279 275 272 271 270 270 271 272 272 273 275 278 281 283 285 287 290 293 296 299 301 304 307 310 314 317 320 323 325 329 332 334 335 335 336 337 339 342 343 343 342 334 306 253 227
286 287 288 289 289 287 284 284 285 286 287 287 287 287 287 289 291 292 292 291 291 289 288 287 286 286 287 287 285 285 286 286 286 285 284 283 281 280 279 278 277 275 273 271 270 270 270 269 269 270 270 272 276 278 280 283 286 289 291 294 296 298 299 302 304 307 310 312 315 317 321 324 325 326 328 329 330 332 334 336 338 340 338 329 310
286 286 287 287 286 285 284 285 286 286 286 286 286 286 287 289 290 291 290 289 288 287 287 287 287 287 288 288 287 286 286 285 285 285 284 283 282 281 280 278 276 275 273 272 271 272 272 272 271 271 271 273 275 277 279 281 283 285 287 288 290 292 293 295 297 299 301 304 306 308 310 313 315 316 317 318 320 321 323 324 325 327 331 332 328
285 284 285 285 284 284 285 286 286 284 284 284 284 285 286 287 288 288 288 287 286 285 285 287 288 288 289 290 289 288 287 286 285 284 284 283 282 281 281 280 279 278 276 276 275 276 277 278 278 277 276 277 277 278 279 280 281 282 284 285 286 288 289 291 293 294 296 297 299 301 302 304 305 307 307 308 310 310 311 312 313 313 315 317 318
285 283 283 283 282 282 283 284 284 283 283 283 283 284 285 286 286 286 286 285 285 284 285 288 289 289 289 290 290 290 289 288 286 284 283 283 283 283 282 282 282 282 281 281 280 280 281 282 283 282 282 281 280 279 280 280 280 281 281 282 284 285 286 288 290 291 292 293 294 295 297 297 298 299 299 299 300 300 299 299 300 301 301 301 302
286 283 281 280 280 280 280 281 282 282 282 282 282 283 284 285 285 284 284 285 285 286 288 289 289 289 289 289 288 288 288 288 287 286 285 285 285 285 285 284 284 284 284 284 284 284 284 285 285 285 285 285 284 283 282 281 281 281 280 280 281 282 283 285 287 288 290 291 291 291 292 292 293 294 294 292 291 291 290 290 289 288 288 288 288
284 282 280 278 277 278 279 279 280 280 280 280 281 282 283 283 283 283 284 285 286 288 289 290 289 289 290 289 288 287 286 286 286 286 286 285 285 285 285 285 284 284 284 285 285 285 286 286 286 286 286 286 286 285 285 284 283 282 281 280 280 281 281 282 284 285 287 289 289 290 290 289 289 289 289 289 287 284 282 281 280 279 278 277 277
282 280 278 277 277 277 278 278 278 279 279 280 281 281 281 280 281 281 283 284 285 287 288 289 289 288 287 287 286 286 285 284 284 284 284 284 284 284 284 284 284 284 284 284 284 285 285 285 286 286 286 286 286 285 285 284 283 282 281 279 279 279 280 280 281 282 283 284 286 287 288 287 287 286 285 285 284 282 279 276 274 272 271 269 269
280 278 278 278 278 277 277 277 278 278 280 281 281 281 280 280 280 281 282 284 285 286 287 288 289 288 288 287 287 286 285 285 284 283 282 282 282 282 282 282 282 283 283 284 284 285 285 285 285 286 286 286 286 285 285 284 283 281 280 279 278 278 278 279 279 279 279 280 281 283 284 284 284 283 282 281 280 278 276 274 271 268 266 264 262
279 278 278 278 277 276 276 277 278 279 280 281 282 282 282 282 282 283 284 285 286 286 287 287 288 288 288 288 287 286 285 284 284 283 283 282 281 281 281 280 280 280 280 280 282 282 283 284 285 286 286 286 286 286 285 285 284 283 282 282 281 280 280 280 280 279 279 278 278 278 279 281 281 281 280 278 277 276 274 272 270 267 264 262 259
279 278 278 278 278 279 279 280 281 282 282 282 281 282 282 281 281 282 284 284 284 284 284 285 285 285 285 285 285 285 285 285 285 285 284 283 282 281 280 279 278 278 277 277 277 278 279 281 282 284 284 285 285 286 286 287 288 288 288 288 287 286 285 284 282 281 281 280 279 278 278 278 279 279 278 277 275 273 272 271 269 267 264 261 259
Height
5885 5885 5884 5883 5882 5881 5880 5879 5877 5876 5874 5872 5870 5868 5866 5865 5865 5863 5862 5860 5857 5855 5853 5850 5848 5846 5843 5841 5838 5836 5834 5831 5829 5827 5824 5821 5818 5814 5812 5808 5804 5801 5799 5798 5796 5795 5793 5791 5788 5786 5783 5782 5780 5778 5777 5775 5774 5772 5770 5770 5770 5769 5768 5766 5767 5773 5779 5778 5778 5780 5779 5779 5782 5785 5787 5792 5797 5800 5803 5807 5808 5810 5814 5817 5819
5883 5882 5880 5879 5878 5878 5877 5875 5874 5872 5870 5868 5866 5864 5863 5862 5861 5859 5857 5855 5853 5850 5848 5846 5843 5841 5838 5835 5833 5831 5828 5826 5824 5821 5818 5816 5812 5809 5806 5803 5799 5795 5793 5792 5790 5788 5786 5784 5781 5779 5776 5774 5773 5771 5770 5769 5767 5766 5764 5763 5764 5763 5762 5760 5759 5763 5770 5771 5771 5772 5772 5772 5776 5779 5781 5785 5790 5792 5796 5799 5802 5804 5807 5810 5813
5880 5878 5876 5876 5875 5874 5873 5872 5870 5869 5866 5864 5861 5860 5859 5858 5857 5856 5854 5851 5849 5846 5844 5841 5838 5836 5834 5831 5828 5825 5823 5821 5818 5815 5812 5809 5806 5803 5800 5797 5793 5790 5787 5785 5784 5782 5780 5777 5774 5772 5770 5768 5766 5765 5764 5762 5761 5759 5758 5756 5756 5757 5756 5754 5753 5755 5760 5764 5764 5766 5766 5766 5770 5774 5775 5778 5782 5785 5788 5792 5795 5797 5800 5803 5806
5876 5874 5873 5873 5872 5871 5869 5868 5867 5865 5862 5859 5857 5856 5855 5854 5853 5852 5850 5847 5844 5841 5839 5837 5834 5831 5828 5825 5822 5820 5818 5816 5813 5809 5806 5802 5799 5797 5794 5790 5787 5784 5782 5779 5778 5775 5773 5770 5768 5765 5764 5761 5759 5758 5757 5756 5754 5753 5752 5750 5749 5749 5749 5748 5747 5747 5751 5756 5758 5760 5760 5760 5762 5767 5770 5772 5775 5778 5782 5786 5789 5791 5794 5797 5800
5872 5871 5871 5869 5868 5868 5866 5864 5863 5861 5858 5855 5853 5851 5851 5849 5848 5846 5844 5842 5840 5837 5834 5832 5830 5827 5824 5820 5817 5814 5812 5810 5808 5805 5800 5795 5792 5790 5788 5785 5781 5779 5776 5773 5771 5769 5766 5763 5761 5758 5757 5755 5753 5751 5750 5749 5747 5746 5745 5744 5743 5742 5742 5742 5741 5741 5743 5748 5751 5753 5754 5754 5757 5760 5764 5767 5769 5772 5776 5779 5783 5786 5789 5791 5794
5868 5867 5867 5866 5865 5865 5863 5861 5859 5857 5853 5850 5848 5847 5846 5845 5843 5841 5840 5838 5836 5833 5830 5827 5824 5822 5819 5816 5812 5808 5805 5803 5802 5800 5796 5790 5786 5783 5780 5778 5776 5773 5770 5767 5764 5762 5760 5757 5755 5752 5751 5749 5747 5745 5743 5742 5741 5738 5737 5737 5736 5735 5735 5735 5734 5734 5736 5739 5742 5745 5747 5748 5751 5755 5758 5761 5763 5765 5768 5771 5775 5780 5783 5786 5790
5865 5864 5864 5863 5862 5861 5859 5857 5855 5851 5848 5846 5844 5843 5842 5841 5839 5837 5835 5833 5830 5828 5826 5823 5820 5817 5814 5811 5807 5804 5800 5797 5796 5794 5790 5786 5783 5779 5774 5770 5769 5767 5764 5761 5758 5755 5753 5751 5749 5747 5744 5743 5741 5739 5737 5736 5734 5732 5730 5729 5728 5728 5728 5728 5728 5728 5729 5731 5734 5737 5740 5742 5745 5748 5751 5754 5757 5759 5761 5764 5769 5774 5777 5781 5785
5863 5862 5861 5859 5858 5856 5855 5853 5851 5846 5843 5842 5840 5839 5838 5837 5835 5832 5830 5828 5825 5823 5821 5818 5815 5812 5809 5806 5802 5799 5795 5792 5791 5789 5785 5781 5778 5776 5771 5766 5763 5761 5759 5756 5753 5750 5748 5746 5744 5741 5739 5737 5735 5733 5732 5730 5728 5725 5723 5721 5720 5720 5720 5720 5721 5722 5723 5724 5726 5729 5732 5736 5739 5742 5744 5747 5751 5754 5756 5758 5762 5767 5771 5775 5780
5858 5858 5857 5855 5853 5851 5850 5848 5845 5841 5839 5838 5837 5835 5834 5833 5830 5828 5826 5823 5820 5818 5815 5813 5810 5807 5804 5801 5797 5794 5791 5788 5785 5783 5780 5776 5772 5770 5767 5763 5760 5757 5755 5752 5748 5745 5743 5742 5739 5737 5735 5733 5731 5729 5727 5725 5722 5720 5717 5715 5713 5712 5712 5713 5714 5715 5716 5718 5719 5722 5725 5729 5734 5737 5739 5740 5744 5748 5750 5751 5756 5762 5767 5771 5775
5855 5854 5852 5850 5848 5847 5846 5843 5839 5836 5835 5834 5833 5832 5830 5828 5826 5823 5821 5819 5816 5813 5810 5807 5805 5802 5799 5796 5792 5789 5786 5784 5780 5777 5774 5771 5767 5763 5761 5759 5756 5753 5751 5748 5745 5742 5740 5738 5736 5734 5732 5729 5726 5725 5723 5721 5718 5715 5711 5708 5707 5706 5706 5706 5706 5707 5709 5711 5713 5714 5717 5723 5728 5731 5733 5734 5738 5742 5744 5746 5751 5757 5761 5765 5769
5852 5850 5847 5845 5845 5844 5841 5837 5834 5832 5831 5830 5829 5827 5826 5824 5822 5819 5816 5814 5811 5808 5805 5803 5800 5797 5794 5790 5787 5784 5781 5778 5775 5772 5769 5766 5762 5758 5755 5754 5751 5748 5746 5744 5742 5740 5738 5736 5735 5732 5728 5725 5721 5718 5718 5716 5713 5710 5707 5703 5701 5700 5699 5699 5699 5700 5701 5703 5705 5707 5710 5717 5722 5724 5727 5729 5732 5737 5741 5743 5747 5752 5756 5759 5764
5848 5845 5843 5841 5840 5839 5835 5832 5829 5828 5828 5826 5825 5823 5821 5819 5817 5814 5812 5809 5807 5804 5800 5798 5795 5792 5789 5786 5784 5781 5777 5774 5770 5766 5763 5759 5756 5754 5751 5749 5747 5744 5742 5740 5738 5736 5734 5733 5731 5727 5723 5720 5716 5713 5712 5711 5708 5705 5702 5699 5697 5695 5694 5693 5693 5693 5694 5696 5698 5700 5704 5710 5715 5718 5721 5724 5727 5732 5736 5738 5741 5746 5751 5755 5759
5842 5841 5839 5838 5836 5833 5830 5827 5825 5824 5824 5823 5821 5819 5817 5815 5812 5809 5807 5805 5802 5799 5795 5792 5789 5787 5784 5782 5779 5776 5773 5769 5765 5762 5758 5754 5751 5748 5747 5745 5743 5740 5737 5736 5734 5733 5731 5729 5726 5721 5717 5716 5713 5709 5708 5706 5703 5700 5697 5694 5692 5690 5689 5688 5687 5688 5688 5690 5692 5694 5698 5703 5708 5713 5716 5719 5722 5726 5729 5732 5735 5740 5746 5751 5755
5838 5837 5836 5834 5831 5827 5825 5823 5822 5821 5820 5819 5818 5816 5813 5810 5807 5804 5802 5799 5796 5793 5790 5786 5784 5782 5779 5776 5773 5771 5768 5765 5761 5758 5755 5751 5748 5745 5742 5741 5739 5736 5734 5732 5730 5729 5728 5726 5723 5718 5715 5712 5709 5706 5703 5701 5697 5694 5692 5690 5687 5685 5684 5683 5682 5682 5683 5684 5687 5690 5693 5697 5703 5708 5711 5715 5717 5719 5723 5726 5730 5735 5741 5745 5748
5835 5834 5831 5828 5825 5823 5822 5820 5819 5817 5816 5815 5813 5811 5808 5805 5803 5800 5797 5794 5791 5788 5784 5781 5778 5776 5774 5771 5768 5764 5762 5760 5756 5753 5750 5747 5744 5741 5738 5736 5734 5732 5730 5728 5726 5725 5724 5723 5719 5714 5711 5708 5704 5701 5699 5696 5692 5689 5687 5685 5682 5681 5679 5677 5676 5676 5677 5679 5682 5685 5688 5692 5698 5703 5707 5711 5714 5715 5718 5722 5726 5732 5736 5739 5741
5831 5829 5826 5823 5821 5820 5818 5817 5816 5814 5812 5810 5808 5806 5803 5800 5798 5796 5793 5789 5786 5783 5779 5776 5774 5771 5768 5765 5763 5759 5756 5754 5751 5748 5744 5741 5738 5736 5733 5731 5730 5728 5726 5724 5722 5720 5719 5719 5716 5711 5708 5704 5700 5696 5694 5691 5687 5684 5682 5680 5677 5676 5674 5672 5671 5671 5672 5674 5677 5681 5684 5688 5693 5699 5703 5706 5710 5712 5714 5717 5722 5727 5730 5732 5736
5826 5824 5821 5819 5818 5817 5815 5814 5813 5811 5808 5806 5803 5800 5798 5796 5794 5791 5788 5785 5782 5778 5774 5772 5769 5765 5762 5759 5757 5755 5752 5748 5745 5742 5738 5735 5733 5731 5728 5727 5726 5724 5722 5720 5718 5716 5714 5713 5711 5708 5704 5700 5696 5693 5690 5686 5682 5679 5677 5675 5672 5670 5668 5667 5665 5665 5666 5670 5673 5676 5680 5684 5688 5694 5699 5702 5705 5707 5710 5714 5719 5721 5723 5726 5731
5821 5819 5818 5816 5815 5813 5812 5810 5808 5806 5804 5801 5797 5794 5792 5790 5788 5786 5784 5781 5777 5772 5769 5766 5764 5760 5756 5754 5751 5749 5746 5743 5740 5737 5734 5731 5728 5726 5724 5723 5722 5721 5719 5717 5714 5712 5710 5709 5707 5704 5701 5698 5695 5691 5687 5683 5678 5675 5673 5670 5667 5664 5662 5661 5660 5660 5663 5666 5669 5672 5676 5679 5684 5689 5694 5697 5701 5703 5707 5711 5715 5717 5720 5723 5727
5817 5815 5815 5813 5811 5810 5807 5805 5804 5802 5800 5796 5793 5789 5786 5784 5782 5781 5778 5775 5772 5768 5764 5761 5758 5755 5752 5748 5745 5742 5739 5736 5733 5732 5730 5727 5724 5722 5720 5720 5719 5717 5716 5714 5711 5708 5706 5705 5703 5700 5698 5696 5692 5688 5683 5678 5674 5671 5669 5665 5662 5659 5657 5656 5655 5657 5660 5663 5665 5668 5671 5675 5680 5685 5689 5693 5696 5700 5704 5707 5710 5713 5717 5721 5723
5813 5812 5811 5809 5807 5805 5803 5800 5799 5798 5796 5792 5789 5786 5782 5779 5777 5775 5772 5770 5767 5764 5760 5756 5753 5750 5748 5745 5741 5737 5733 5729 5727 5727 5726 5724 5720 5718 5717 5716 5715 5714 5712 5711 5708 5705 5703 5701 5699 5697 5695 5692 5688 5684 5680 5675 5671 5669 5666 5662 5658 5656 5654 5652 5652 5654 5657 5659 5661 5664 5668 5672 5677 5681 5685 5689 5693 5697 5700 5703 5706 5709 5713 5717 5721
5809 5808 5806 5804 5802 5800 5798 5795 5793 5793 5791 5788 5785 5782 5778 5774 5772 5769 5766 5764 5761 5758 5755 5751 5748 5746 5743 5740 5737 5734 5730 5725 5723 5722 5722 5720 5718 5716 5714 5713 5712 5711 5709 5707 5705 5703 5701 5699 5696 5694 5692 5688 5685 5681 5677 5673 5669 5666 5663 5659 5656 5653 5652 5650 5649 5651 5654 5656 5658 5661 5665 5670 5674 5678 5681 5685 5689 5693 5696 5699 5702 5704 5708 5713 5717
5803 5802 5800 5799 5797 5795 5793 5790 5788 5786 5785 5782 5780 5777 5774 5771 5767 5764 5761 5758 5755 5753 5750 5747 5744 5741 5739 5736 5733 5731 5728 5725 5721 5718 5717 5717 5716 5713 5712 5710 5709 5708 5706 5705 5703 5701 5699 5696 5694 5692 5689 5686 5682 5679 5675 5671 5667 5663 5660 5657 5654 5650 5649 5649 5647 5648 5650 5653 5655 5659 5663 5667 5671 5674 5678 5681 5684 5687 5691 5694 5697 5700 5703 5709 5712
5798 5796 5794 5793 5792 5790 5789 5786 5783 5781 5779 5776 5774 5772 5769 5766 5763 5760 5757 5754 5751 5748 5746 5743 5740 5737 5735 5732 5729 5727 5726 5723 5720 5717 5715 5715 5714 5711 5709 5707 5706 5704 5703 5701 5700 5698 5695 5693 5691 5690 5687 5684 5680 5676 5673 5669 5665 5661 5658 5655 5652 5649 5647 5647 5646 5646 5648 5650 5652 5656 5660 5663 5666 5670 5673 5677 5679 5682 5686 5690 5693 5695 5699 5703 5707
5793 5792 5790 5788 5786 5785 5784 5781 5779 5776 5774 5771 5769 5766 5763 5761 5758 5755 5752 5750 5747 5744 5740 5737 5735 5733 5730 5728 5725 5723 5721 5719 5717 5714 5713 5713 5712 5709 5706 5705 5703 5701 5699 5698 5696 5695 5693 5691 5689 5687 5685 5681 5678 5674 5670 5667 5664 5660 5656 5653 5650 5647 5645 5644 5644 5644 5646 5647 5650 5652 5655 5658 5661 5665 5669 5672 5676 5679 5682 5685 5689 5691 5694 5697 5701
5789 5787 5785 5783 5780 5779 5778 5775 5773 5771 5768 5765 5763 5761 5758 5755 5753 5751 5747 5745 5742 5739 5735 5732 5729 5727 5725 5723 5721 5719 5717 5715 5713 5710 5708 5709 5709 5706 5704 5702 5700 5698 5697 5695 5693 5692 5690 5689 5687 5685 5682 5679 5676 5672 5668 5665 5662 5659 5655 5651 5648 5646 5643 5642 5642 5643 5645 5646 5647 5649 5651 5653 5657 5661 5665 5669 5672 5675 5679 5682 5684 5687 5689 5692 5695
5784 5782 5780 5778 5774 5772 5771 5768 5766 5764 5762 5759 5758 5756 5753 5750 5748 5746 5743 5739 5735 5732 5730 5727 5725 5723 5720 5718 5716 5714 5711 5709 5708 5705 5704 5705 5704 5703 5701 5699 5697 5695 5694 5693 5691 5689 5688 5686 5685 5683 5680 5677 5674 5671 5667 5664 5661 5658 5654 5650 5647 5644 5642 5640 5640 5642 5643 5644 5645 5646 5648 5651 5654 5658 5662 5665 5668 5671 5675 5678 5681 5684 5686 5688 5692
5778 5776 5774 5771 5768 5766 5764 5762 5760 5757 5755 5753 5751 5749 5747 5745 5742 5740 5738 5734 5730 5727 5725 5722 5720 5718 5716 5714 5712 5710 5707 5705 5703 5702 5701 5701 5700 5699 5698 5697 5695 5693 5692 5690 5688 5687 5686 5684 5682 5681 5678 5675 5672 5669 5666 5663 5660 5657 5653 5650 5646 5643 5641 5639 5638 5639 5641 5641 5642 5643 5646 5649 5653 5657 5660 5662 5665 5668 5670 5673 5677 5679 5681 5685 5689
5771 5769 5767 5765 5763 5762 5759 5756 5754 5751 5748 5747 5745 5742 5740 5739 5736 5734 5732 5729 5726 5723 5720 5718 5715 5713 5711 5710 5708 5705 5703 5701 5699 5698 5697 5696 5696 5696 5695 5694 5692 5691 5689 5688 5686 5684 5684 5682 5680 5678 5676 5673 5670 5668 5665 5663 5660 5656 5653 5650 5646 5643 5641 5639 5638 5638 5639 5639 5639 5641 5644 5647 5650 5654 5657 5659 5661 5664 5666 5669 5672 5675 5678 5681 5684
5765 5763 5762 5760 5758 5757 5754 5750 5747 5744 5741 5740 5739 5737 5734 5732 5730 5728 5725 5724 5722 5719 5716 5713 5711 5709 5707 5705 5703 5700 5698 5697 5694 5693 5693 5692 5692 5692 5691 5690 5689 5688 5687 5686 5683 5682 5681 5679 5677 5675 5673 5671 5668 5666 5664 5661 5659 5656 5653 5650 5647 5644 5641 5639 5638 5637 5637 5638 5638 5638 5641 5644 5647 5650 5654 5656 5658 5660 5663 5665 5668 5671 5675 5677 5680
5759 5757 5755 5753 5751 5749 5747 5744 5741 5738 5735 5733 5732 5731 5728 5726 5725 5723 5720 5718 5716 5714 5711 5709 5706 5704 5703 5701 5698 5695 5694 5692 5690 5689 5689 5689 5688 5688 5688 5687 5686 5685 5684 5683 5681 5679 5677 5676 5674 5672 5670 5668 5666 5664 5662 5660 5658 5656 5653 5650 5647 5644 5641 5639 5637 5636 5636 5637 5637 5637 5639 5641 5643 5646 5650 5652 5654 5657 5659 5662 5664 5667 5671 5673 5676
5753 5751 5748 5746 5744 5742 5740 5737 5734 5732 5728 5725 5724 5724 5723 5721 5719 5717 5715 5713 5711 5709 5706 5704 5701 5700 5699 5697 5694 5692 5690 5688 5687 5686 5686 5686 5686 5685 5684 5684 5683 5682 5681 5679 5677 5676 5674 5673 5672 5670 5668 5666 5665 5663 5661 5659 5658 5656 5653 5650 5648 5645 5642 5639 5637 5636 5635 5636 5636 5636 5637 5638 5640 5642 5644 5647 5650 5653 5656 5658 5661 5664 5667 5669 5672
5747 5745 5742 5740 5738 5736 5734 5731 5728 5725 5722 5718 5716 5716 5716 5716 5714 5712 5709 5707 5706 5703 5701 5699 5697 5695 5694 5692 5690 5688 5686 5685 5684 5683 5683 5683 5683 5682 5681 5680 5679 5678 5677 5676 5674 5673 5671 5670 5669 5667 5665 5664 5663 5661 5660 5659 5657 5655 5653 5651 5649 5646 5643 5640 5638 5636 5635 5635 5635 5635 5635 5635 5637 5639 5641 5644 5646 5649 5651 5654 5657 5660 5663 5665 5668
5741 5739 5736 5733 5731 5730 5727 5725 5721 5718 5715 5712 5710 5709 5709 5710 5709 5707 5704 5702 5700 5699 5696 5694 5693 5691 5689 5688 5686 5684 5683 5681 5681 5680 5680 5680 5679 5679 5678 5677 5676 5675 5674 5673 5671 5670 5669 5667 5666 5665 5663 5662 5661 5660 5659 5658 5656 5655 5653 5651 5649 5647 5644 5642 5639 5637 5635 5634 5634 5634 5633 5633 5635 5636 5639 5641 5643 5645 5648 5650 5653 5656 5659 5661 5664
5734 5732 5729 5726 5723 5722 5720 5718 5715 5712 5709 5707 5705 5703 5703 5703 5703 5702 5699 5697 5695 5694 5692 5690 5689 5687 5685 5683 5682 5681 5679 5678 5677 5676 5676 5676 5676 5675 5675 5674 5673 5672 5671 5670 5669 5667 5666 5665 5663 5662 5661 5660 5659 5658 5658 5657 5655 5654 5653 5652 5650 5647 5645 5643 5641 5639 5637 5635 5634 5633 5632 5632 5634 5635 5636 5638 5640 5642 5645 5647 5650 5653 5656 5658 5660
5727 5725 5723 5720 5716 5713 5712 5710 5708 5706 5703 5701 5699 5699 5698 5696 5696 5696 5695 5692 5691 5689 5687 5685 5684 5682 5681 5679 5678 5677 5675 5674 5673 5672 5672 5672 5672 5671 5671 5671 5670 5669 5668 5667 5666 5665 5664 5662 5661 5660 5658 5657 5657 5656 5656 5655 5654 5653 5652 5651 5650 5648 5646 5644 5642 5640 5638 5636 5635 5633 5633 5632 5633 5634 5635 5636 5637 5639 5641 5643 5646 5649 5652 5655 5656
5720 5718 5716 5713 5710 5707 5705 5703 5701 5700 5698 5696 5695 5694 5693 5692 5691 5690 5689 5688 5686 5684 5683 5681 5679 5678 5676 5675 5674 5672 5671 5670 5669 5668 5667 5667 5667 5667 5667 5667 5666 5665 5664 5663 5663 5662 5661 5659 5658 5657 5656 5655 5654 5654 5654 5653 5653 5652 5651 5650 5649 5648 5647 5645 5643 5641 5639 5638 5636 5635 5633 5633 5633 5633 5634 5635 5635 5636 5638 5639 5641 5644 5647 5650 5652
5713 5711 5709 5706 5703 5701 5698 5695 5695 5694 5693 5692 5691 5689 5688 5687 5686 5685 5684 5682 5680 5679 5677 5676 5675 5674 5672 5670 5669 5668 5667 5666 5666 5665 5664 5663 5663 5663 5663 5663 5663 5662 5661 5660 5659 5658 5658 5657 5656 5655 5654 5653 5652 5652 5651 5651 5651 5650 5650 5649 5648 5647 5646 5645 5644 5642 5641 5639 5638 5636 5635 5634 5633 5633 5633 5633 5634 5634 5635 5636 5638 5640 5642 5644 5647
5706 5704 5702 5699 5697 5695 5692 5689 5689 5689 5688 5687 5686 5685 5684 5683 5681 5680 5679 5677 5675 5673 5672 5671 5670 5669 5668 5666 5665 5664 5663 5663 5662 5661 5661 5660 5659 5659 5659 5658 5658 5658 5657 5656 5656 5655 5655 5654 5653 5652 5651 5650 5649 5649 5649 5648 5648 5648 5648 5647 5646 5646 5645 5644 5643 5642 5641 5640 5639 5637 5636 5634 5633 5633 5632 5632 5632 5633 5633 5634 5635 5636 5638 5640 5642
5700 5698 5696 5693 5690 5689 5687 5685 5683 5683 5683 5682 5681 5680 5679 5678 5676 5675 5674 5672 5670 5669 5668 5667 5666 5665 5664 5662 5661 5661 5660 5659 5659 5658 5657 5657 5656 5655 5654 5654 5654 5653 5653 5652 5652 5651 5651 5651 5650 5649 5648 5647 5647 5646 5646 5645 5645 5645 5645 5645 5644 5644 5643 5643 5642 5642 5641 5640 5639 5638 5637 5636 5635 5634 5633 5632 5632 5632 5632 5632 5632 5633 5634 5636 5638
5694 5693 5691 5687 5685 5684 5683 5681 5679 5678 5677 5677 5676 5675 5674 5673 5671 5670 5669 5668 5666 5665 5664 5663 5662 5661 5660 5659 5658 5657 5656 5656 5655 5654 5653 5653 5652 5651 5650 5650 5649 5649 5649 5648 5648 5648 5647 5647 5647 5646 5645 5645 5644 5643 5643 5642 5642 5642 5642 5642 5642 5641 5641 5641 5640 5640 5640 5639 5639 5638 5637 5636 5635 5635 5634 5633 5632 5631 5631 5631 5631 5631 5631 5632 5634
5688 5687 5685 5683 5680 5679 5677 5676 5674 5673 5672 5671 5671 5670 5669 5668 5667 5666 5665 5663 5662 5661 5660 5658 5657 5656 5656 5655 5654 5653 5652 5651 5651 5650 5649 5648 5648 5647 5647 5646 5645 5645 5645 5644 5644 5644 5644 5643 5643 5643 5642 5642 5641 5641 5640 5639 5639 5639 5639 5639 5639 5639 5639 5638 5638 5638 5638 5638 5637 5637 5637 5636 5636 5635 5634 5633 5633 5632 5631 5631 5630 5630 5630 5630 5631
5681 5680 5679 5677 5676 5674 5673 5671 5669 5668 5667 5666 5665 5665 5664 5663 5662 5661 5660 5659 5658 5656 5656 5654 5653 5651 5651 5651 5650 5649 5648 5647 5646 5646 5645 5644 5644 5643 5643 5642 5642 5642 5641 5641 5641 5640 5640 5640 5640 5640 5639 5639 5638 5638 5637 5636 5636 5636 5636 5636 5636 5636 5635 5635 5635 5635 5635 5635 5635 5635 5635 5635 5635 5634 5634 5633 5633 5632 5632 5631 5630 5630 5629 5629 5629
5675 5674 5673 5672 5670 5668 5667 5666 5664 5663 5662 5661 5660 5660 5659 5658 5658 5657 5656 5655 5653 5652 5652 5651 5649 5647 5646 5646 5646 5645 5644 5643 5642 5641 5641 5640 5640 5639 5639 5639 5638 5638 5638 5638 5637 5637 5636 5636 5636 5636 5636 5636 5635 5634 5634 5633 5633 5632 5632 5632 5632 5632 5632 5632 5632 5632 5632 5632 5632 5632 5632 5632 5633 5633 5633 5632 5632 5631 5631 5631 5630 5630 5630 5629 5629
5668 5667 5667 5665 5664 5662 5661 5660 5659 5658 5657 5656 5655 5655 5654 5654 5653 5652 5651 5650 5649 5648 5648 5647 5646 5644 5642 5642 5641 5641 5640 5639 5639 5638 5637 5636 5636 5636 5635 5635 5634 5634 5634 5634 5634 5633 5633 5633 5632 5632 5632 5632 5631 5631 5630 5630 5629 5629 5628 5628 5628 5628 5628 5628 5628 5628 5628 5628 5629 5629 5629 5630 5630 5630 5631 5630 5630 5630 5630 5630 5630 5630 5630 5629 5629
5662 5661 5660 5660 5658 5657 5656 5655 5654 5653 5652 5651 5650 5650 5650 5649 5648 5647 5646 5645 5644 5643 5643 5643 5642 5640 5639 5638 5637 5636 5636 5635 5635 5634 5633 5633 5632 5632 5632 5631 5631 5630 5630 5630 5630 5629 5629 5629 5628 5628 5628 5628 5628 5627 5627 5626 5626 5625 5625 5624 5624 5624 5624 5624 5624 5624 5624 5624 5625 5625 5626 5626 5626 5627 5628 5628 5628 5628 5628 5628 5628 5628 5628 5628 5628
5656 5655 5654 5654 5653 5651 5651 5650 5649 5647 5647 5646 5645 5645 5644 5644 5643 5642 5641 5641 5639 5638 5638 5638 5637 5636 5635 5634 5633 5632 5631 5631 5631 5630 5629 5629 5628 5628 5628 5627 5627 5627 5626 5626 5626 5625 5625 5625 5624 5624 5624 5624 5624 5623 5623 5623 5622 5622 5621 5621 5621 5620 5620 5620 5620 5620 5620 5620 5620 5621 5621 5622 5622 5623 5623 5624 5625 5625 5625 5625 5625 5625 5626 5626 5626
5651 5650 5649 5648 5648 5647 5646 5645 5643 5642 5642 5641 5640 5640 5640 5639 5638 5637 5636 5636 5635 5634 5633 5633 5632 5631 5630 5630 5629 5628 5628 5627 5627 5626 5626 5625 5625 5624 5624 5624 5623 5623 5622 5622 5622 5621 5621 5621 5620 5620 5620 5619 5619 5619 5619 5618 5618 5618 5617 5617 5617 5616 5616 5616 5616 5615 5615 5615 5616 5616 5616 5617 5618 5618 5619 5619 5620 5621 5622 5622 5623 5623 5623 5623 5623
5646 5645 5643 5643 5642 5641 5641 5639 5638 5637 5636 5636 5635 5635 5635 5634 5633 5632 5632 5631 5630 5629 5628 5628 5627 5627 5626 5626 5625 5625 5624 5623 5623 5623 5622 5621 5621 5620 5620 5619 5619 5619 5618 5618 5617 5617 5617 5616 5616 5615 5615 5615 5614 5614 5614 5614 5613 5613 5613 5613 5613 5612 5612 5611 5611 5611 5611 5611 5611 5611 5611 5612 5612 5613 5614 5614 5615 5616 5617 5618 5619 5619 5619 5620 5620
5640 5640 5639 5638 5637 5636 5636 5635 5634 5633 5631 5631 5630 5630 5629 5628 5628 5627 5627 5626 5625 5624 5623 5623 5622 5622 5622 5621 5620 5620 5619 5619 5619 5618 5618 5617 5616 5616 5615 5615 5614 5614 5613 5613 5613 5612 5612 5611 5611 5611 5610 5610 5609 5609 5609 5609 5609 5608 5608 5608 5608 5607 5607 5606 5606 5606 5606 5607 5606 5606 5606 5606 5607 5608 5609 5609 5610 5610 5611 5612 5613 5614 5615 5616 5616
5635 5634 5634 5633 5632 5631 5631 5630 5629 5628 5627 5626 5625 5624 5624 5623 5622 5622 5621 5621 5620 5619 5619 5618 5617 5617 5617 5616 5616 5615 5615 5614 5614 5613 5613 5612 5612 5611 5611 5610 5610 5609 5609 5608 5608 5607 5607 5607 5606 5606 5605 5605 5604 5604 5604 5603 5603 5603 5603 5603 5602 5602 5602 5602 5601 5601 5602 5602 5602 5602 5602 5602 5602 5602 5603 5604 5605 5605 5606 5607 5608 5609 5610 5610 5611
5629 5629 5629 5628 5626 5625 5625 5625 5624 5623 5622 5621 5620 5619 5618 5618 5617 5617 5616 5616 5615 5615 5614 5614 5613 5613 5612 5612 5611 5610 5610 5609 5609 5608 5607 5607 5606 5606 5605 5605 5605 5604 5604 5604 5603 5603 5603 5602 5602 5601 5601 5600 5600 5599 5599 5598 5598 5598 5598 5597 5597 5597 5597 5597 5597 5597 5597 5597 5597 5597 5597 5597 5597 5597 5598 5598 5599 5600 5601 5601 5602 5603 5604 5605 5605